Probability
29 45 48 52 45 55 52 52 58 58 61 58 42 45 45 45 45 45 45 42 39 29 19 23 19 19 16 13 10 6 10 10 10 10 10 13 6 10 3 3 3 6 6
23 42 45 48 48 45 52 55 55 52 52 55 39 42 42 42 42 45 45 39 35 32 19 19 19 19 16 6 6 6 6 13 10 10 6 3 3 6 3 3 3 3 3
19 39 42 42 45 48 45 48 48 48 45 42 35 42 42 42 42 42 39 35 32 29 23 16 16 16 13 6 6 10 10 10 3 0 3 3 3 3 3 3 3 3 3
19 32 32 42 45 42 48 45 48 48 45 32 32 39 39 42 45 42 42 35 29 29 19 16 16 13 13 10 10 10 10 3 0 0 0 0 0 3 3 3 3 3 3
19 32 35 42 42 42 35 39 45 42 42 35 32 32 35 42 42 42 39 35 29 26 19 16 13 13 13 13 10 10 3 3 0 0 0 0 0 3 3 3 3 3 3
35 32 35 42 39 42 39 35 35 32 32 26 29 32 39 42 35 39 39 29 26 23 19 13 10 10 13 10 10 10 3 0 0 0 0 0 0 3 3 3 3 3 3
29 32 35 35 39 39 39 32 32 35 29 26 26 32 39 35 39 35 35 23 26 23 13 10 10 10 13 13 6 3 3 0 0 0 0 0 0 3 3 3 3 3 3
26 29 29 35 39 45 35 35 35 32 29 26 29 35 35 35 29 29 29 23 23 16 16 10 10 10 13 13 3 3 0 0 0 0 0 0 0 3 3 3 3 3 0
19 29 29 29 32 35 32 35 32 32 29 35 32 29 29 26 29 26 23 23 19 16 13 10 10 10 10 3 3 0 0 0 0 0 0 0 0 3 3 3 3 3 0
23 26 26 29 26 23 26 16 19 26 26 26 26 16 16 19 26 23 16 13 13 10 13 6 10 10 6 3 3 0 0 0 0 0 0 0 0 3 3 3 3 3 3
23 26 26 26 26 16 16 6 10 16 23 23 16 10 6 16 16 13 3 10 10 10 6 6 10 6 3 3 0 0 0 0 0 0 0 0 0 3 3 3 3 3 3
13 19 23 29 16 13 13 13 16 13 19 19 16 13 13 16 10 3 3 3 10 6 6 6 6 3 0 0 0 0 0 0 0 0 0 0 3 3 3 3 3 3 3
10 10 16 13 16 10 13 13 13 13 13 13 13 16 13 10 6 6 3 3 6 3 6 3 3 3 0 0 0 0 0 0 3 0 0 0 0 3 3 3 3 3 0
6 10 10 6 13 13 10 10 13 13 10 13 10 13 6 10 6 3 3 3 10 6 6 3 3 3 0 0 0 0 3 3 0 0 0 0 0 3 3 3 3 0 0
6 3 0 6 6 6 10 13 6 10 10 6 13 10 6 6 6 3 3 3 6 3 3 3 3 0 0 0 0 0 0 0 0 0 0 0 0 0 3 3 0 0 0
6 0 3 6 6 6 6 6 6 6 6 10 10 10 6 3 0 3 0 3 0 3 3 3 3 0 0 0 0 0 0 0 0 0 0 0 0 0 0 3 3 3 0
6 3 3 6 6 6 6 6 6 6 6 6 6 3 3 3 0 0 0 0 0 0 0 3 0 0 0 0 0 0 0 0 0 0 0 0 0 0 0 0 0 3 0
3 3 3 0 3 6 6 6 6 6 6 6 6 3 3 3 0 0 3 0 0 0 0 0 0 0 0 0 0 0 0 0 0 0 0 0 0 0 0 0 0 0 0
3 0 0 0 3 6 6 6 6 6 6 6 6 3 3 3 3 0 3 0 0 0 0 0 0 0 0 0 0 0 0 0 0 0 0 0 0 0 0 0 0 0 0
3 3 0 0 0 6 6 6 6 6 6 6 6 3 3 3 3 0 3 0 0 0 0 0 0 0 0 0 0 0 0 0 0 0 0 0 0 0 0 0 0 0 0
3 6 3 0 0 0 3 3 3 3 3 6 3 3 3 3 0 0 0 0 0 0 0 0 0 0 0 0 0 0 0 0 0 0 0 0 0 0 0 0 0 0 0
3 3 6 3 0 0 0 0 3 3 3 0 0 0 0 0 0 0 0 0 0 0 0 0 0 0 0 0 0 0 0 0 0 0 0 0 0 0 0 0 0 0 0
3 3 6 6 3 0 0 0 0 0 0 0 0 0 0 0 0 0 0 0 0 0 0 0 0 0 0 0 0 0 0 0 0 0 0 0 0 0 0 0 0 0 0
3 3 3 6 6 3 0 0 0 0 0 0 0 0 0 0 0 0 0 0 0 0 0 0 0 0 0 0 0 0 0 0 0 0 0 0 0 0 0 0 0 0 0
0 0 3 3 6 6 6 3 0 0 0 0 0 0 0 0 0 0 0 0 0 0 0 0 0 0 0 0 0 0 0 0 0 0 0 0 0 0 0 0 0 0 0
0 0 0 0 3 6 3 3 3 3 0 0 0 0 0 0 0 0 0 0 0 0 0 0 0 0 0 0 0 0 0 0 0 0 0 0 0 0 0 0 0 0 0
Height
5853 5853 5854 5854 5855 5856 5856 5856 5857 5857 5857 5857 5857 5857 5857 5857 5858 5858 5858 5858 5858 5858 5858 5858 5858 5858 5858 5858 5857 5857 5857 5857 5856 5856 5855 5855 5854 5854 5853 5852 5851 5850 5850
5850 5850 5851 5852 5852 5853 5853 5854 5854 5855 5855 5855 5855 5855 5855 5855 5855 5855 5856 5856 5856 5856 5856 5856 5856 5856 5856 5856 5855 5855 5855 5855 5854 5854 5854 5853 5853 5852 5851 5850 5850 5849 5848
5846 5847 5848 5848 5849 5850 5851 5851 5851 5852 5852 5853 5853 5852 5852 5852 5852 5853 5853 5853 5853 5853 5853 5854 5853 5853 5853 5853 5853 5853 5853 5852 5852 5852 5851 5851 5850 5850 5849 5848 5848 5847 5846
5842 5843 5844 5845 5845 5846 5847 5848 5848 5848 5849 5849 5849 5849 5849 5849 5849 5850 5850 5850 5850 5850 5850 5851 5851 5851 5851 5851 5851 5851 5850 5850 5850 5849 5849 5848 5848 5847 5847 5846 5845 5844 5843
5837 5838 5839 5840 5841 5842 5843 5844 5844 5845 5845 5846 5846 5846 5846 5846 5846 5846 5846 5847 5847 5847 5847 5847 5847 5847 5847 5847 5847 5847 5847 5847 5846 5846 5846 5845 5845 5844 5844 5843 5843 5842 5841
5832 5833 5835 5836 5837 5838 5839 5839 5840 5841 5841 5842 5842 5842 5842 5842 5842 5842 5842 5843 5843 5843 5843 5843 5843 5843 5843 5844 5844 5844 5843 5843 5843 5843 5842 5842 5842 5841 5841 5840 5839 5839 5838
5827 5828 5830 5831 5832 5833 5834 5834 5835 5836 5837 5837 5838 5838 5838 5838 5838 5837 5838 5838 5838 5838 5838 5839 5839 5839 5839 5839 5839 5839 5839 5839 5839 5839 5838 5838 5838 5837 5837 5836 5835 5835 5834
5821 5822 5824 5825 5827 5828 5829 5829 5830 5831 5832 5832 5833 5833 5833 5833 5832 5832 5832 5833 5833 5833 5833 5833 5833 5833 5834 5834 5834 5834 5834 5834 5834 5834 5834 5834 5833 5833 5832 5832 5831 5830 5830
5815 5816 5817 5819 5820 5822 5823 5824 5824 5825 5826 5827 5827 5827 5827 5827 5827 5827 5827 5827 5827 5827 5827 5827 5827 5827 5827 5828 5828 5828 5828 5829 5828 5828 5829 5829 5829 5828 5828 5827 5826 5825 5825
5808 5809 5810 5812 5814 5815 5817 5818 5818 5819 5820 5820 5821 5821 5821 5821 5820 5820 5820 5820 5820 5820 5820 5820 5820 5821 5821 5821 5822 5822 5822 5822 5822 5822 5823 5823 5823 5823 5822 5822 5821 5820 5819
5801 5802 5803 5804 5806 5808 5810 5811 5812 5812 5813 5813 5814 5814 5814 5814 5813 5813 5813 5812 5812 5812 5812 5812 5813 5813 5814 5814 5815 5815 5815 5815 5816 5816 5817 5817 5817 5816 5816 5816 5815 5814 5813
5794 5795 5796 5797 5799 5801 5803 5804 5804 5805 5806 5806 5807 5807 5806 5806 5806 5805 5805 5804 5804 5804 5804 5805 5805 5805 5806 5807 5808 5808 5808 5808 5809 5809 5809 5810 5810 5810 5809 5809 5809 5808 5807
5786 5787 5789 5790 5791 5793 5795 5795 5796 5796 5797 5798 5798 5798 5798 5798 5797 5797 5797 5797 5796 5797 5797 5797 5797 5798 5798 5799 5800 5801 5801 5801 5801 5802 5802 5802 5802 5802 5802 5802 5802 5801 5801
5778 5779 5781 5782 5783 5784 5785 5787 5788 5788 5789 5789 5789 5789 5789 5789 5789 5789 5789 5789 5789 5789 5789 5789 5790 5790 5790 5791 5792 5793 5793 5793 5794 5794 5794 5794 5794 5794 5794 5795 5794 5794 5793
5769 5770 5772 5773 5774 5775 5776 5777 5778 5778 5779 5779 5779 5779 5780 5780 5780 5780 5780 5781 5781 5782 5782 5781 5782 5782 5782 5783 5784 5784 5785 5785 5785 5786 5786 5786 5786 5786 5786 5787 5787 5786 5786
5759 5761 5762 5763 5764 5765 5766 5766 5767 5768 5769 5769 5770 5770 5770 5771 5771 5772 5772 5773 5773 5774 5774 5774 5774 5773 5774 5775 5776 5776 5777 5777 5777 5777 5777 5778 5778 5778 5778 5778 5778 5778 5778
5749 5750 5751 5752 5753 5754 5755 5756 5756 5757 5758 5759 5759 5760 5760 5761 5762 5762 5763 5764 5765 5765 5765 5765 5765 5765 5766 5767 5767 5768 5769 5769 5769 5769 5769 5769 5769 5770 5770 5770 5770 5770 5769
5738 5739 5740 5741 5742 5743 5743 5744 5745 5746 5747 5748 5748 5749 5750 5751 5752 5753 5754 5755 5756 5756 5756 5756 5756 5756 5757 5758 5759 5760 5761 5761 5761 5761 5761 5761 5761 5761 5761 5761 5761 5761 5761
5726 5727 5728 5729 5730 5731 5731 5732 5733 5734 5735 5736 5737 5739 5739 5740 5741 5743 5745 5746 5746 5746 5747 5747 5747 5747 5748 5750 5751 5752 5752 5752 5753 5752 5752 5752 5752 5752 5752 5752 5752 5752 5751
5714 5715 5716 5717 5717 5718 5719 5720 5722 5723 5723 5725 5726 5728 5729 5730 5731 5733 5735 5736 5736 5737 5737 5737 5737 5738 5739 5741 5742 5743 5744 5744 5744 5744 5744 5744 5744 5744 5743 5743 5743 5743 5742
5702 5703 5704 5705 5705 5706 5707 5709 5710 5711 5712 5714 5715 5716 5717 5719 5720 5722 5724 5726 5726 5727 5728 5728 5729 5729 5730 5731 5733 5734 5734 5735 5735 5735 5735 5735 5735 5735 5734 5734 5733 5733 5732
5690 5691 5692 5692 5694 5695 5696 5697 5698 5700 5701 5702 5703 5705 5706 5708 5710 5712 5714 5715 5716 5717 5718 5718 5719 5720 5721 5722 5723 5724 5725 5726 5726 5726 5726 5726 5726 5726 5725 5725 5724 5723 5723
5678 5679 5680 5681 5682 5684 5684 5685 5686 5688 5690 5691 5692 5694 5696 5697 5700 5701 5703 5705 5705 5706 5707 5709 5710 5710 5712 5713 5713 5714 5715 5717 5717 5717 5717 5717 5716 5716 5716 5715 5714 5713 5712
5666 5667 5668 5669 5671 5672 5673 5674 5675 5677 5679 5681 5682 5683 5685 5687 5689 5690 5692 5694 5695 5696 5697 5698 5700 5701 5702 5703 5704 5705 5706 5707 5707 5708 5708 5707 5707 5706 5706 5705 5704 5703 5702
5654 5655 5656 5657 5658 5660 5661 5662 5664 5665 5667 5669 5670 5671 5673 5675 5677 5679 5681 5683 5684 5686 5687 5688 5690 5691 5692 5694 5695 5696 5696 5697 5697 5698 5698 5698 5697 5696 5695 5695 5694 5693 5692
5643 5644 5644 5645 5647 5648 5650 5651 5652 5654 5655 5657 5658 5660 5661 5663 5665 5667 5670 5672 5673 5675 5676 5678 5680 5681 5682 5684 5685 5686 5687 5688 5687 5687 5688 5688 5688 5687 5685 5684 5684 5683 5681
Wind_Speed
17 16 16 16 15 15 14 13 12 12 11 11 11 11 11 11 11 11 10 10 9 8 8 8 8 7 7 8 8 8 8 7 7 7 7 7 7 7 8 8 8 8 8
19 18 17 17 17 16 16 15 14 13 13 12 12 12 12 12 12 12 12 12 11 11 10 10 10 10 9 9 9 9 9 9 9 9 9 9 9 9 9 9 9 9 9
20 20 19 18 18 18 18 17 17 16 15 14 14 14 14 14 14 14 14 13 13 13 13 12 12 12 12 12 11 11 11 11 11 11 11 11 11 11 11 11 11 11 11
22 21 20 20 20 20 19 19 19 18 17 16 16 16 15 15 16 16 16 16 15 15 15 15 15 14 14 14 14 14 14 14 14 13 13 13 13 13 13 12 12 12 12
23 22 22 21 21 20 20 20 20 20 19 18 18 17 17 17 17 18 18 18 18 17 17 17 16 16 16 16 16 16 16 16 16 16 15 15 14 14 14 14 14 14 14
24 23 23 22 21 21 21 21 21 21 21 20 19 19 19 18 18 18 19 20 20 20 20 19 19 18 18 17 17 17 17 18 17 17 17 17 16 16 16 15 16 16 16
25 25 24 24 23 23 23 23 23 23 23 23 22 21 21 21 21 21 21 21 21 21 21 21 21 21 21 20 20 19 19 19 18 19 19 19 18 18 18 18 18 18 18
26 26 26 26 25 25 24 24 25 25 25 24 24 23 23 23 23 23 23 23 23 23 23 23 23 23 23 23 22 22 22 21 21 20 20 20 20 20 20 20 21 20 20
27 27 27 27 28 27 26 26 27 26 26 26 25 25 25 25 25 25 25 25 25 25 25 25 25 25 24 24 24 24 24 24 23 22 22 22 21 21 22 22 22 22 23
29 29 29 29 30 29 29 28 28 28 28 28 28 27 27 28 27 27 28 28 27 27 27 27 27 26 26 26 25 26 26 26 26 25 25 24 24 24 24 24 24 24 25
30 30 31 31 32 31 31 31 30 30 30 30 30 30 30 30 30 29 30 29 29 29 28 28 28 28 27 27 27 27 27 27 28 27 27 27 26 26 26 26 26 26 26
33 32 32 33 33 33 33 33 33 33 33 32 32 32 32 32 31 30 30 30 30 30 29 28 28 28 29 29 28 28 28 29 29 29 29 29 29 28 28 28 27 27 28
35 34 34 34 35 35 35 35 35 35 35 34 34 34 34 33 33 32 32 32 32 31 31 30 29 29 30 30 30 30 30 30 31 31 30 30 30 30 30 30 29 29 29
37 37 37 37 37 38 37 37 37 36 36 36 36 36 35 35 34 34 33 33 32 32 32 32 31 31 31 31 31 31 31 32 32 32 31 31 31 32 32 32 32 31 31
40 40 39 40 40 41 40 40 39 38 38 38 38 37 36 35 35 35 34 34 33 33 32 33 33 32 32 32 32 32 33 33 33 32 31 32 33 33 33 33 33 33 33
42 42 42 42 42 42 43 42 41 40 39 39 38 38 37 37 37 36 36 36 36 35 35 34 34 34 34 34 34 34 33 33 33 33 33 33 34 34 33 33 33 34 34
43 44 44 44 44 44 45 44 43 42 42 41 40 39 39 40 39 38 38 38 38 38 38 37 36 36 36 35 35 35 35 34 34 34 34 34 34 34 34 34 34 35 35
44 45 46 46 46 46 46 46 46 45 43 43 43 42 41 41 41 40 38 38 39 40 39 39 39 38 38 37 37 37 36 35 34 35 34 35 35 35 35 35 35 35 36
44 45 46 47 47 47 46 46 47 47 45 45 44 44 44 43 42 41 40 40 40 40 40 41 41 40 39 39 38 37 37 36 36 35 35 35 35 35 36 36 36 37 37
44 45 47 47 47 47 47 46 46 46 46 46 46 46 45 45 44 43 42 41 40 41 41 40 41 41 40 39 39 38 38 37 37 37 36 35 35 36 37 37 37 38 38
44 44 45 44 45 45 46 46 46 46 46 46 47 46 46 46 45 45 44 44 42 41 41 40 40 41 42 40 39 39 39 39 39 37 36 36 36 37 37 38 39 39 39
44 44 43 43 44 45 45 45 45 46 46 46 46 46 46 46 46 45 44 45 45 44 43 41 41 42 42 41 41 40 40 40 40 39 38 38 37 38 39 39 40 40 41
42 43 44 43 43 44 45 45 45 46 46 46 47 47 46 46 46 46 46 46 46 45 45 44 43 43 42 41 41 41 41 41 39 39 39 39 39 40 41 41 41 41 42
39 40 42 43 44 43 44 44 45 46 46 46 47 47 48 47 47 47 47 47 46 46 45 46 45 44 43 42 42 42 42 41 41 39 40 41 41 41 42 42 41 42 42
40 39 40 41 42 43 43 43 44 46 46 46 47 48 48 47 47 47 47 46 46 46 46 46 47 46 44 44 43 43 43 42 42 41 41 41 41 41 41 41 41 42 42
39 40 40 40 41 42 42 43 43 45 45 46 46 47 49 49 49 49 48 48 47 46 46 46 47 46 44 45 45 44 44 43 43 43 42 41 41 41 41 40 41 42 42
Wind_Direction
244 244 244 244 242 244 246 246 243 243 244 246 249 251 253 249 249 249 249 250 250 252 255 258 263 266 269 270 270 274 276 277 280 289 295 297 298 300 302 304 306 309 311
247 247 246 243 244 244 246 246 245 245 246 248 251 253 254 251 249 250 250 250 253 255 258 261 265 265 266 268 270 273 276 275 278 282 286 289 292 294 297 300 303 303 305
248 248 246 245 245 244 246 248 248 248 248 249 251 253 254 252 250 250 250 250 253 257 259 262 266 266 268 269 270 271 275 275 276 279 280 283 288 291 293 295 298 299 299
247 247 246 245 245 245 247 249 251 250 251 251 251 253 255 255 253 251 251 252 253 256 260 262 264 266 269 270 270 271 272 275 276 277 279 281 286 288 290 292 294 295 296
245 246 246 245 245 245 247 249 250 251 252 254 254 255 257 259 257 254 253 254 254 256 259 262 262 264 266 268 269 270 271 273 276 277 279 281 283 285 287 288 290 292 293
245 246 246 247 247 247 247 249 250 252 254 256 256 258 259 260 260 258 256 256 256 258 260 261 262 264 265 266 267 268 270 271 273 275 277 278 280 282 283 285 286 288 289
246 246 246 247 248 248 248 250 252 254 257 258 259 260 261 261 261 262 259 258 258 260 261 262 263 264 265 266 266 266 268 270 270 271 274 275 276 279 280 282 283 286 287
247 246 247 247 247 247 248 250 252 254 257 258 260 262 262 263 263 263 262 260 260 261 262 262 263 264 265 266 266 266 266 267 268 270 273 275 276 277 278 280 281 283 284
247 248 247 247 247 247 248 252 254 255 256 258 260 262 262 262 263 263 263 262 260 261 263 264 264 265 266 266 266 265 265 266 267 268 271 273 276 277 278 279 281 282 283
249 249 249 247 247 248 249 252 255 255 257 258 260 262 263 264 262 262 263 263 262 262 262 263 263 264 265 266 266 266 267 267 268 268 270 272 274 275 276 278 279 282 283
249 250 249 248 249 249 250 252 255 255 257 259 260 261 263 263 263 263 263 262 263 262 261 262 262 263 264 265 266 267 268 268 269 270 271 272 273 275 275 276 277 280 282
249 251 250 249 250 251 251 253 255 256 257 258 260 261 263 263 264 264 262 261 261 261 260 261 261 262 263 264 265 267 268 269 270 271 273 273 273 274 274 274 276 279 281
250 251 250 249 251 253 254 254 256 257 257 258 260 261 262 263 262 261 262 260 260 261 261 261 261 262 263 264 265 266 268 270 272 272 272 273 272 272 273 273 275 277 280
250 251 252 251 253 254 256 258 257 257 257 259 260 261 261 261 260 260 260 259 258 261 262 261 262 262 263 264 265 267 269 271 272 272 272 272 272 272 272 273 274 276 278
251 252 253 254 255 256 257 258 257 259 258 259 259 259 258 258 259 259 259 258 259 261 263 263 262 262 263 264 265 268 269 270 271 271 272 272 272 272 272 272 273 275 277
253 253 254 255 255 257 257 256 256 256 258 259 259 258 257 257 258 259 258 259 259 260 263 264 263 262 262 263 265 267 268 270 270 271 273 273 273 272 272 272 272 275 277
254 254 255 255 255 256 256 256 256 257 256 257 257 257 257 257 257 257 257 258 259 261 262 262 262 262 262 262 264 266 268 269 270 272 274 273 272 271 272 273 273 274 276
255 255 256 256 255 256 255 256 256 256 256 256 257 257 257 257 256 255 257 258 259 260 262 263 262 262 262 262 263 264 266 268 270 273 274 273 271 271 272 273 274 274 275
256 256 256 257 257 256 256 256 257 257 255 255 255 256 257 256 255 255 256 258 258 259 262 263 262 261 261 261 263 263 264 266 269 272 273 272 271 271 272 274 274 274 275
258 258 257 257 258 257 255 256 257 255 255 255 255 255 256 256 254 254 254 257 257 259 261 262 261 260 259 260 261 262 264 266 268 272 272 272 271 272 273 274 274 274 276
258 259 258 258 256 256 255 255 256 255 255 255 255 255 255 255 254 254 253 255 257 260 260 260 261 260 259 259 261 263 265 266 269 271 272 271 271 273 274 274 275 275 276
260 259 257 258 257 256 256 256 255 254 254 254 255 254 254 255 254 253 255 255 257 259 260 259 260 259 258 260 263 264 264 267 269 271 272 272 273 274 275 276 276 276 277
260 260 258 257 257 256 257 256 254 253 253 253 253 254 253 253 253 255 255 255 257 259 259 260 262 259 259 260 263 264 265 268 269 270 271 271 273 274 275 276 276 276 277
261 261 260 258 257 257 257 257 255 254 254 253 254 253 252 253 254 254 255 256 257 258 259 260 260 260 259 260 261 263 265 266 268 270 271 271 273 275 276 276 276 277 278
262 261 261 258 257 258 258 258 256 255 255 254 254 254 252 251 251 253 255 256 256 257 258 259 260 260 260 260 261 263 265 267 268 270 271 271 273 275 276 276 277 277 278
264 263 262 260 259 259 259 259 258 256 256 256 256 255 252 251 251 254 255 255 256 257 257 258 259 259 260 261 261 262 264 267 269 270 270 270 272 272 273 275 277 277 278